| time (UTC) | temp C | wind direction | speed KPH | gust KPH | rain 1hr cm | rain 24hr cm | rain mn cm | humidity % | barometer mb |
| 20260510010829 | 6 | 274 | 0.0 | 0.0 | 0.00 | 0.86 | 0.86 | 95 | 1011.9 |
| 20260510010326 | 6 | 274 | 0.0 | 0.0 | 0.00 | 0.86 | 0.86 | 95 | 1011.8 |
| 20260510005823 | 6 | 274 | 0.0 | 0.0 | 0.00 | 0.86 | 0.86 | 95 | 1011.9 |
| 20260510005319 | 6 | 274 | 0.0 | 0.0 | 0.00 | 0.86 | 0.86 | 95 | 1011.9 |
| 20260510004817 | 6 | 274 | 0.0 | 0.0 | 0.00 | 0.86 | 0.86 | 95 | 1011.9 |
| 20260510004314 | 6 | 274 | 0.0 | 0.0 | 0.00 | 0.86 | 0.86 | 95 | 1011.7 |
| 20260510003812 | 6 | 274 | 0.0 | 0.0 | 0.00 | 0.86 | 0.86 | 95 | 1011.6 |
| 20260510003308 | 6 | 274 | 0.0 | 0.0 | 0.00 | 0.86 | 0.86 | 95 | 1011.5 |
| 20260510002807 | 6 | 274 | 0.0 | 0.0 | 0.00 | 0.86 | 0.86 | 95 | 1011.4 |
| 20260510002307 | 6 | 274 | 0.0 | 0.0 | 0.00 | 0.86 | 0.86 | 95 | 1011.6 |
| 20260510001801 | 6 | 274 | 0.0 | 0.0 | 0.00 | 0.86 | 0.86 | 95 | 1011.6 |
| 20260510001300 | 6 | 274 | 0.0 | 0.0 | 0.00 | 0.86 | 0.86 | 95 | 1011.7 |
| 20260510000755 | 6 | 274 | 0.0 | 0.0 | 0.00 | 0.86 | 0.86 | 95 | 1011.6 |
| 20260510000253 | 6 | 274 | 0.0 | 0.0 | 0.00 | 0.86 | 0.86 | 95 | 1011.4 |
| 20260509235750 | 6 | 274 | 0.0 | 0.0 | 0.00 | 0.86 | 0.86 | 95 | 1011.5 |
| 20260509235246 | 6 | 274 | 0.0 | 0.0 | 0.00 | 0.86 | 0.86 | 95 | 1011.7 |
| 20260509234742 | 6 | 274 | 0.0 | 0.0 | 0.00 | 0.86 | 0.86 | 95 | 1011.5 |
| 20260509234239 | 6 | 274 | 0.0 | 0.0 | 0.00 | 0.86 | 0.86 | 95 | 1011.7 |
| 20260509233737 | 6 | 274 | 0.0 | 0.0 | 0.00 | 0.86 | 0.86 | 95 | 1011.8 |
| 20260509233234 | 6 | 274 | 0.0 | 0.0 | 0.18 | 0.86 | 0.86 | 95 | 1012.0 |
| 20260509232730 | 6 | 274 | 0.0 | 0.0 | 0.18 | 0.86 | 0.86 | 95 | 1011.8 |
| 20260509232227 | 6 | 274 | 0.0 | 0.0 | 0.13 | 0.84 | 0.84 | 95 | 1012.0 |
| 20260509231724 | 6 | 274 | 0.0 | 0.0 | 0.13 | 0.84 | 0.84 | 95 | 1012.1 |
| 20260509231221 | 6 | 274 | 0.0 | 0.0 | 0.00 | 0.81 | 0.81 | 95 | 1012.0 |
| 20260509230719 | 6 | 274 | 0.0 | 0.0 | 0.00 | 0.81 | 0.81 | 95 | 1011.9 |
| 20260509230215 | 6 | 274 | 0.0 | 0.0 | 0.00 | 0.81 | 0.81 | 95 | 1012.1 |
| 20260509225711 | 6 | 274 | 0.0 | 0.0 | 0.18 | 0.81 | 0.81 | 95 | 1012.1 |
| 20260509225207 | 6 | 274 | 0.0 | 0.0 | 0.18 | 0.81 | 0.81 | 95 | 1012.0 |
| 20260509224702 | 6 | 274 | 0.0 | 0.0 | 0.00 | 0.79 | 0.79 | 95 | 1011.9 |
| 20260509224200 | 6 | 274 | 0.0 | 0.0 | 0.13 | 0.79 | 0.79 | 95 | 1012.1 |
| 20260509223656 | 6 | 274 | 0.0 | 0.0 | 0.13 | 0.79 | 0.79 | 95 | 1012.1 |
| 20260509223148 | 6 | 274 | 0.0 | 0.0 | 0.00 | 0.76 | 0.76 | 95 | 1012.1 |
| 20260509222645 | 6 | 274 | 0.0 | 0.0 | 0.18 | 0.76 | 0.76 | 95 | 1012.1 |
| 20260509222140 | 6 | 274 | 0.0 | 0.0 | 0.18 | 0.76 | 0.76 | 95 | 1012.0 |
| 20260509221636 | 6 | 274 | 0.0 | 0.0 | 0.00 | 0.74 | 0.74 | 95 | 1012.1 |
| 20260509221132 | 6 | 274 | 0.0 | 0.0 | 0.18 | 0.74 | 0.74 | 95 | 1012.2 |
| 20260509220628 | 6 | 274 | 0.0 | 0.0 | 0.18 | 0.74 | 0.74 | 95 | 1012.3 |
| 20260509220124 | 6 | 274 | 0.0 | 0.0 | 0.00 | 0.71 | 0.71 | 95 | 1012.3 |
| 20260509215620 | 6 | 274 | 0.0 | 0.0 | 0.13 | 0.71 | 0.71 | 95 | 1012.4 |
| 20260509215117 | 6 | 274 | 0.0 | 0.0 | 0.43 | 0.71 | 0.71 | 95 | 1012.3 |
| 20260509214614 | 6 | 274 | 0.0 | 0.0 | 0.48 | 0.69 | 0.69 | 95 | 1012.4 |
| 20260509214111 | 6 | 274 | 0.0 | 0.0 | 0.30 | 0.64 | 0.64 | 95 | 1012.8 |
| 20260509213602 | 6 | 274 | 0.0 | 0.0 | 0.13 | 0.61 | 0.61 | 95 | 1012.4 |
| 20260509213058 | 6 | 274 | 0.0 | 0.0 | 0.00 | 0.58 | 0.58 | 95 | 1012.3 |
| 20260509212555 | 6 | 274 | 0.0 | 0.0 | 0.00 | 0.58 | 0.58 | 95 | 1012.5 |
| 20260509212052 | 6 | 274 | 0.0 | 0.0 | 0.00 | 0.58 | 0.58 | 95 | 1012.2 |
| 20260509211548 | 6 | 274 | 0.0 | 0.0 | 0.18 | 0.58 | 0.58 | 95 | 1012.2 |
| 20260509211045 | 6 | 274 | 0.0 | 0.0 | 0.18 | 0.58 | 0.58 | 95 | 1011.7 |
| 20260509210541 | 6 | 274 | 0.0 | 0.0 | 0.00 | 0.56 | 0.56 | 95 | 1012.1 |
| 20260509210037 | 6 | 274 | 0.0 | 0.0 | 0.00 | 0.56 | 0.56 | 95 | 1012.2 |
| 20260509205532 | 6 | 274 | 0.0 | 0.0 | 0.00 | 0.56 | 0.56 | 95 | 1012.3 |
| 20260509205028 | 6 | 274 | 0.0 | 0.0 | 0.00 | 0.56 | 0.56 | 95 | 1012.3 |
| 20260509204524 | 6 | 274 | 0.0 | 0.0 | 0.13 | 0.56 | 0.56 | 95 | 1012.2 |
| 20260509204021 | 6 | 274 | 0.0 | 0.0 | 0.00 | 0.53 | 0.53 | 95 | 1012.0 |
| 20260509203516 | 6 | 274 | 0.0 | 0.0 | 0.18 | 0.53 | 0.53 | 95 | 1012.1 |
| 20260509203015 | 6 | 274 | 0.0 | 0.0 | 0.18 | 0.53 | 0.53 | 95 | 1012.4 |
| 20260509202509 | 6 | 274 | 0.0 | 0.0 | 0.13 | 0.51 | 0.51 | 95 | 1012.8 |
| 20260509202005 | 6 | 274 | 0.0 | 0.0 | 0.30 | 0.51 | 0.51 | 95 | 1012.7 |
| 20260509201500 | 6 | 274 | 0.0 | 0.0 | 0.18 | 0.48 | 0.48 | 94 | 1012.6 |
| 20260509200958 | 6 | 274 | 0.0 | 0.0 | 0.13 | 0.46 | 0.46 | 94 | 1012.7 |
| 20260509200452 | 6 | 274 | 0.0 | 0.0 | 0.18 | 0.43 | 0.43 | 94 | 1012.7 |
| 20260509195949 | 6 | 274 | 0.0 | 0.0 | 0.36 | 0.43 | 0.43 | 94 | 1012.7 |
| 20260509195445 | 6 | 274 | 0.0 | 0.0 | 0.18 | 0.41 | 0.41 | 94 | 1012.9 |
| 20260509194944 | 6 | 274 | 0.0 | 0.0 | 0.13 | 0.38 | 0.38 | 94 | 1013.1 |
| 20260509194440 | 6 | 274 | 0.0 | 0.0 | 0.30 | 0.38 | 0.38 | 94 | 1012.9 |
| 20260509193937 | 6 | 274 | 0.0 | 0.0 | 0.48 | 0.36 | 0.36 | 94 | 1013.0 |
| 20260509193437 | 6 | 274 | 0.0 | 0.0 | 0.43 | 0.33 | 0.33 | 93 | 1012.9 |
| 20260509192933 | 6 | 274 | 0.0 | 0.0 | 0.13 | 0.28 | 0.28 | 93 | 1013.1 |
| 20260509192430 | 6 | 274 | 0.0 | 0.0 | 0.18 | 0.25 | 0.25 | 93 | 1013.1 |
| 20260509191925 | 7 | 274 | 0.0 | 0.0 | 0.30 | 0.25 | 0.25 | 93 | 1013.0 |
| 20260509191420 | 7 | 274 | 0.0 | 0.0 | 0.13 | 0.23 | 0.23 | 93 | 1013.0 |
| 20260509190917 | 7 | 274 | 0.0 | 0.0 | 0.00 | 0.20 | 0.20 | 93 | 1013.2 |
| 20260509190414 | 7 | 274 | 0.0 | 0.0 | 0.18 | 0.20 | 0.20 | 92 | 1013.4 |
| 20260509185912 | 7 | 274 | 0.0 | 0.0 | 0.13 | 0.18 | 0.18 | 92 | 1013.1 |
| 20260509185409 | 7 | 274 | 0.0 | 0.0 | 0.13 | 0.18 | 0.18 | 92 | 1013.2 |
| 20260509184905 | 7 | 274 | 0.0 | 1.6 | 0.18 | 0.15 | 0.15 | 92 | 1013.2 |
| 20260509184402 | 7 | 274 | 0.0 | 0.0 | 0.18 | 0.15 | 0.15 | 91 | 1013.1 |
| 20260509183859 | 7 | 274 | 0.0 | 1.6 | 0.13 | 0.13 | 0.13 | 90 | 1013.2 |
| 20260509183354 | 7 | 274 | 0.0 | 0.0 | 0.13 | 0.13 | 0.13 | 90 | 1013.2 |
| 20260509182850 | 7 | 274 | 0.0 | 0.0 | 0.18 | 0.10 | 0.10 | 90 | 1013.4 |
| 20260509182347 | 7 | 274 | 0.0 | 0.0 | 0.18 | 0.10 | 0.10 | 89 | 1013.3 |
| 20260509181845 | 7 | 274 | 0.0 | 0.0 | 0.18 | 0.08 | 0.08 | 88 | 1013.0 |
| 20260509181342 | 7 | 274 | 0.0 | 0.0 | 0.18 | 0.08 | 0.08 | 87 | 1013.3 |
| 20260509180839 | 7 | 274 | 0.0 | 0.0 | 0.00 | 0.05 | 0.05 | 86 | 1013.3 |
| 20260509180335 | 8 | 274 | 0.0 | 0.0 | 0.13 | 0.05 | 0.05 | 86 | 1013.2 |
| 20260509175832 | 8 | 274 | 0.0 | 0.0 | 0.13 | 0.05 | 0.05 | 86 | 1013.3 |
| 20260509175328 | 8 | 274 | 0.0 | 0.0 | 0.00 | 0.03 | 0.03 | 86 | 1013.1 |
| 20260509174824 | 8 | 274 | 0.0 | 0.0 | 0.00 | 0.03 | 0.03 | 85 | 1013.2 |
| 20260509174320 | 8 | 274 | 0.0 | 0.0 | 0.00 | 0.03 | 0.03 | 84 | 1013.3 |
| 20260509173816 | 8 | 274 | 0.0 | 0.0 | 0.18 | 0.03 | 0.03 | 84 | 1013.2 |
| 20260509173312 | 8 | 274 | 0.0 | 0.0 | 0.18 | 0.03 | 0.03 | 83 | 1013.1 |
| 20260509172808 | 8 | 274 | 0.0 | 0.0 | 0.00 | 0.00 | 0.00 | 82 | 1013.2 |
| 20260509172306 | 8 | 274 | 0.0 | 0.0 | 0.00 | 0.00 | 0.00 | 81 | 1013.1 |
| 20260509171800 | 8 | 274 | 0.0 | 0.0 | 0.00 | 0.00 | 0.00 | 78 | 1013.4 |
| 20260509171251 | 8 | 274 | 0.0 | 0.0 | 0.00 | 0.00 | 0.00 | 76 | 1013.1 |
| 20260509170747 | 9 | 274 | 0.0 | 0.0 | 0.00 | 0.00 | 0.00 | 73 | 1013.3 |
| 20260509170243 | 10 | 274 | 0.0 | 0.0 | 0.00 | 0.00 | 0.00 | 71 | 1013.3 |
| 20260509165742 | 10 | 274 | 0.0 | 0.0 | 0.00 | 0.00 | 0.00 | 65 | 1013.4 |
| 20260509165238 | 10 | 274 | 0.0 | 1.6 | 0.00 | 0.00 | 0.00 | 64 | 1013.0 |
| 20260509164734 | 10 | 274 | 1.6 | 1.6 | 0.00 | 0.00 | 0.00 | 58 | 1013.1 |
| 20260509164229 | 10 | 274 | 0.0 | 1.6 | 0.00 | 0.00 | 0.00 | 58 | 1013.1 |
| 20260509163727 | 10 | 274 | 0.0 | 1.6 | 0.00 | 0.00 | 0.00 | 56 | 1013.1 |
| 20260509163223 | 11 | 274 | 1.6 | 3.2 | 0.00 | 0.00 | 0.00 | 53 | 1013.0 |
| 20260509162721 | 11 | 274 | 0.0 | 0.0 | 0.00 | 0.00 | 0.00 | 49 | 1012.9 |
| 20260509162216 | 11 | 274 | 0.0 | 4.8 | 0.00 | 0.00 | 0.00 | 47 | 1013.0 |
| 20260509161712 | 12 | 274 | 0.0 | 3.2 | 0.00 | 0.00 | 0.00 | 44 | 1013.0 |
| 20260509161209 | 11 | 274 | 0.0 | 0.0 | 0.00 | 0.00 | 0.00 | 41 | 1012.9 |
| 20260509160704 | 12 | 274 | 0.0 | 1.6 | 0.00 | 0.00 | 0.00 | 40 | 1012.7 |
| 20260509160200 | 12 | 274 | 0.0 | 0.0 | 0.00 | 0.00 | 0.00 | 40 | 1012.6 |
| 20260509155656 | 12 | 274 | 0.0 | 3.2 | 0.00 | 0.00 | 0.00 | 40 | 1012.9 |
| 20260509155152 | 12 | 274 | 0.0 | 1.6 | 0.00 | 0.00 | 0.00 | 37 | 1012.4 |
| 20260509154648 | 12 | 274 | 0.0 | 0.0 | 0.00 | 0.00 | 0.00 | 38 | 1012.4 |
| 20260509154146 | 12 | 274 | 0.0 | 0.0 | 0.00 | 0.00 | 0.00 | 44 | 1012.6 |
| 20260509153642 | 12 | 274 | 0.0 | 1.6 | 0.00 | 0.00 | 0.00 | 46 | 1012.7 |
| 20260509153139 | 12 | 274 | 0.0 | 0.0 | 0.00 | 0.00 | 0.00 | 48 | 1012.6 |
| 20260509152634 | 11 | 274 | 0.0 | 0.0 | 0.00 | 0.00 | 0.00 | 52 | 1012.5 |
| 20260509152132 | 11 | 274 | 0.0 | 0.0 | 0.00 | 0.00 | 0.00 | 51 | 1012.5 |
| 20260509151628 | 11 | 274 | 0.0 | 0.0 | 0.00 | 0.00 | 0.00 | 52 | 1012.5 |
| 20260509151126 | 10 | 274 | 0.0 | 1.6 | 0.00 | 0.00 | 0.00 | 53 | 1012.5 |
| 20260509150624 | 10 | 274 | 0.0 | 1.6 | 0.00 | 0.00 | 0.00 | 55 | 1012.6 |
| 20260509150122 | 11 | 274 | 0.0 | 0.0 | 0.00 | 0.00 | 0.00 | 55 | 1012.6 |
| 20260509145617 | 10 | 274 | 0.0 | 3.2 | 0.00 | 0.00 | 0.00 | 56 | 1012.5 |
| 20260509145113 | 10 | 274 | 3.2 | 3.2 | 0.00 | 0.00 | 0.00 | 56 | 1012.7 |
| 20260509144610 | 10 | 274 | 1.6 | 1.6 | 0.00 | 0.00 | 0.00 | 57 | 1012.7 |
| 20260509144107 | 9 | 274 | 1.6 | 1.6 | 0.00 | 0.00 | 0.00 | 53 | 1012.7 |
| 20260509143604 | 10 | 274 | 1.6 | 3.2 | 0.00 | 0.00 | 0.00 | 54 | 1012.7 |
| 20260509143102 | 9 | 274 | 0.0 | 1.6 | 0.00 | 0.00 | 0.00 | 54 | 1012.5 |
| 20260509142556 | 9 | 274 | 0.0 | 3.2 | 0.00 | 0.00 | 0.00 | 56 | 1012.6 |
| 20260509142053 | 9 | 274 | 1.6 | 3.2 | 0.00 | 0.00 | 0.00 | 56 | 1012.4 |
| 20260509141549 | 9 | 274 | 0.0 | 0.0 | 0.00 | 0.00 | 0.00 | 56 | 1012.8 |
| 20260509141046 | 8 | 274 | 0.0 | 0.0 | 0.00 | 0.00 | 0.00 | 58 | 1012.5 |
| 20260509140543 | 9 | 274 | 1.6 | 1.6 | 0.00 | 0.00 | 0.00 | 56 | 1012.7 |
| 20260509140041 | 9 | 274 | 0.0 | 1.6 | 0.00 | 0.00 | 0.00 | 57 | 1012.8 |
| 20260509135538 | 8 | 274 | 0.0 | 1.6 | 0.00 | 0.00 | 0.00 | 59 | 1012.6 |
| 20260509135035 | 8 | 274 | 1.6 | 3.2 | 0.00 | 0.00 | 0.00 | 61 | 1012.6 |
| 20260509134526 | 7 | 274 | 0.0 | 0.0 | 0.00 | 0.00 | 0.00 | 63 | 1012.6 |
| 20260509134024 | 6 | 274 | 0.0 | 0.0 | 0.00 | 0.00 | 0.00 | 66 | 1012.9 |
| 20260509133520 | 6 | 274 | 1.6 | 3.2 | 0.00 | 0.00 | 0.00 | 67 | 1012.7 |
| 20260509133018 | 6 | 274 | 1.6 | 4.8 | 0.00 | 0.00 | 0.00 | 67 | 1012.8 |
| 20260509132517 | 6 | 274 | 3.2 | 3.2 | 0.00 | 0.00 | 0.00 | 67 | 1012.8 |
| 20260509132014 | 6 | 274 | 0.0 | 1.6 | 0.00 | 0.00 | 0.00 | 66 | 1013.0 |
| 20260509131510 | 6 | 274 | 0.0 | 0.0 | 0.00 | 0.00 | 0.00 | 68 | 1013.1 |
| 20260509131007 | 6 | 274 | 0.0 | 0.0 | 0.00 | 0.00 | 0.00 | 69 | 1013.0 |
| 20260509130502 | 7 | 274 | 0.0 | 0.0 | 0.00 | 0.00 | 0.00 | 68 | 1013.0 |
| 20260509130000 | 6 | 274 | 0.0 | 0.0 | 0.00 | 0.00 | 0.00 | 67 | 1013.3 |
| 20260509125456 | 7 | 274 | 0.0 | 0.0 | 0.00 | 0.00 | 0.00 | 67 | 1013.2 |
| 20260509124952 | 6 | 274 | 0.0 | 0.0 | 0.00 | 0.00 | 0.00 | 72 | 1013.1 |
| 20260509124449 | 5 | 274 | 0.0 | 0.0 | 0.00 | 0.00 | 0.00 | 74 | 1013.2 |
| 20260509123947 | 5 | 274 | 0.0 | 0.0 | 0.00 | 0.00 | 0.00 | 76 | 1013.1 |
| 20260509123444 | 5 | 274 | 0.0 | 0.0 | 0.00 | 0.00 | 0.00 | 75 | 1013.0 |
| 20260509122939 | 5 | 274 | 0.0 | 0.0 | 0.00 | 0.00 | 0.00 | 75 | 1013.2 |
| 20260509122437 | 5 | 274 | 0.0 | 0.0 | 0.00 | 0.00 | 0.00 | 77 | 1013.4 |
| 20260509121933 | 5 | 274 | 0.0 | 0.0 | 0.00 | 0.00 | 0.00 | 78 | 1013.6 |
| 20260509121430 | 5 | 274 | 0.0 | 0.0 | 0.00 | 0.00 | 0.00 | 78 | 1013.4 |
| 20260509120928 | 5 | 274 | 0.0 | 0.0 | 0.00 | 0.00 | 0.00 | 76 | 1013.3 |
| 20260509120426 | 4 | 274 | 0.0 | 0.0 | 0.00 | 0.00 | 0.00 | 80 | 1013.4 |
| 20260509115924 | 3 | 274 | 0.0 | 0.0 | 0.00 | 0.00 | 0.00 | 82 | 1013.4 |
| 20260509115421 | 3 | 274 | 0.0 | 0.0 | 0.00 | 0.00 | 0.00 | 84 | 1013.3 |
| 20260509114918 | 3 | 274 | 0.0 | 0.0 | 0.00 | 0.00 | 0.00 | 86 | 1013.3 |
| 20260509114417 | 3 | 274 | 0.0 | 0.0 | 0.00 | 0.00 | 0.00 | 88 | 1013.6 |
| 20260509113916 | 2 | 274 | 0.0 | 0.0 | 0.00 | 0.00 | 0.00 | 90 | 1013.3 |
| 20260509113413 | 2 | 274 | 0.0 | 0.0 | 0.00 | 0.00 | 0.00 | 92 | 1013.4 |
| 20260509112909 | 2 | 274 | 0.0 | 0.0 | 0.00 | 0.00 | 0.00 | 92 | 1013.3 |
| 20260509112407 | 2 | 274 | 0.0 | 0.0 | 0.00 | 0.00 | 0.00 | 92 | 1013.2 |
| 20260509111904 | 1 | 274 | 0.0 | 0.0 | 0.00 | 0.00 | 0.00 | 93 | 1013.3 |
| 20260509111400 | 1 | 274 | 0.0 | 0.0 | 0.00 | 0.00 | 0.00 | 93 | 1013.4 |
| 20260509110858 | 1 | 274 | 0.0 | 0.0 | 0.00 | 0.00 | 0.00 | 93 | 1013.4 |
| 20260509110354 | 1 | 274 | 0.0 | 0.0 | 0.00 | 0.00 | 0.00 | 94 | 1013.4 |
| 20260509105853 | 0 | 274 | 0.0 | 0.0 | 0.00 | 0.00 | 0.00 | 94 | 1013.1 |
| 20260509105350 | 0 | 274 | 0.0 | 0.0 | 0.00 | 0.00 | 0.00 | 94 | 1013.4 |
| 20260509104847 | 0 | 274 | 0.0 | 0.0 | 0.00 | 0.00 | 0.00 | 94 | 1013.2 |
| 20260509104343 | 0 | 274 | 0.0 | 0.0 | 0.00 | 0.00 | 0.00 | 94 | 1013.2 |
| 20260509103841 | 0 | 274 | 0.0 | 0.0 | 0.00 | 0.00 | 0.00 | 94 | 1013.0 |
| 20260509103338 | 0 | 274 | 0.0 | 0.0 | 0.00 | 0.00 | 0.00 | 94 | 1013.0 |
| 20260509102837 | 0 | 274 | 0.0 | 0.0 | 0.00 | 0.00 | 0.00 | 94 | 1012.9 |
| 20260509102334 | 0 | 274 | 0.0 | 0.0 | 0.00 | 0.00 | 0.00 | 94 | 1012.9 |
| 20260509101830 | 0 | 274 | 0.0 | 0.0 | 0.00 | 0.00 | 0.00 | 94 | 1012.8 |
| 20260509101326 | -1 | 274 | 0.0 | 0.0 | 0.00 | 0.00 | 0.00 | 94 | 1012.8 |
| 20260509100824 | -1 | 274 | 0.0 | 0.0 | 0.00 | 0.00 | 0.00 | 94 | 1012.7 |
| 20260509100321 | -1 | 274 | 0.0 | 0.0 | 0.00 | 0.00 | 0.00 | 94 | 1012.5 |
| 20260509095817 | -1 | 274 | 0.0 | 0.0 | 0.00 | 0.00 | 0.00 | 94 | 1012.4 |
| 20260509095315 | -1 | 274 | 0.0 | 0.0 | 0.00 | 0.00 | 0.00 | 94 | 1012.4 |
| 20260509094812 | -1 | 274 | 0.0 | 0.0 | 0.00 | 0.00 | 0.00 | 94 | 1012.4 |
| 20260509094309 | -1 | 274 | 0.0 | 0.0 | 0.00 | 0.00 | 0.00 | 93 | 1012.2 |
| 20260509093806 | -1 | 274 | 0.0 | 0.0 | 0.00 | 0.00 | 0.00 | 93 | 1012.3 |
| 20260509093303 | -1 | 274 | 0.0 | 0.0 | 0.00 | 0.00 | 0.00 | 93 | 1012.2 |
| 20260509092802 | -1 | 274 | 0.0 | 0.0 | 0.00 | 0.00 | 0.00 | 93 | 1012.0 |
| 20260509092259 | -1 | 274 | 0.0 | 0.0 | 0.00 | 0.00 | 0.00 | 93 | 1012.2 |
| 20260509091757 | -1 | 274 | 0.0 | 0.0 | 0.00 | 0.00 | 0.00 | 93 | 1012.2 |
| 20260509091254 | -1 | 274 | 0.0 | 0.0 | 0.00 | 0.00 | 0.00 | 93 | 1012.0 |
| 20260509090751 | -1 | 274 | 0.0 | 0.0 | 0.00 | 0.00 | 0.00 | 93 | 1012.0 |
| 20260509090248 | -1 | 274 | 0.0 | 0.0 | 0.00 | 0.00 | 0.00 | 93 | 1012.1 |
| 20260509085746 | -1 | 274 | 0.0 | 0.0 | 0.00 | 0.00 | 0.00 | 92 | 1012.2 |
| 20260509085243 | -1 | 274 | 0.0 | 0.0 | 0.00 | 0.00 | 0.00 | 92 | 1012.1 |
| 20260509084739 | -1 | 274 | 0.0 | 0.0 | 0.00 | 0.00 | 0.00 | 92 | 1011.8 |
| 20260509084236 | -1 | 274 | 0.0 | 0.0 | 0.00 | 0.00 | 0.00 | 92 | 1011.8 |
| 20260509083734 | -1 | 274 | 0.0 | 0.0 | 0.00 | 0.00 | 0.00 | 92 | 1011.9 |
| 20260509083230 | -1 | 274 | 0.0 | 0.0 | 0.00 | 0.00 | 0.00 | 92 | 1012.0 |
| 20260509082727 | -1 | 274 | 0.0 | 0.0 | 0.00 | 0.00 | 0.00 | 91 | 1012.3 |
| 20260509082224 | -1 | 274 | 0.0 | 0.0 | 0.00 | 0.00 | 0.00 | 91 | 1012.0 |
| 20260509081721 | 0 | 274 | 0.0 | 0.0 | 0.00 | 0.00 | 0.00 | 91 | 1012.2 |
| 20260509081218 | 0 | 274 | 0.0 | 0.0 | 0.00 | 0.00 | 0.00 | 91 | 1012.2 |
| 20260509080716 | 0 | 274 | 0.0 | 0.0 | 0.00 | 0.00 | 0.00 | 91 | 1012.1 |
| 20260509080214 | 0 | 274 | 0.0 | 0.0 | 0.00 | 0.00 | 0.00 | 91 | 1012.1 |
| 20260509075712 | 0 | 274 | 0.0 | 0.0 | 0.00 | 0.00 | 0.00 | 91 | 1012.1 |
| 20260509075209 | 0 | 274 | 0.0 | 0.0 | 0.00 | 0.00 | 0.00 | 91 | 1012.0 |
| 20260509074706 | 0 | 274 | 0.0 | 0.0 | 0.00 | 0.00 | 0.00 | 91 | 1012.1 |
| 20260509074203 | 0 | 274 | 0.0 | 0.0 | 0.00 | 0.00 | 0.00 | 91 | 1012.0 |
| 20260509073659 | 0 | 274 | 0.0 | 0.0 | 0.00 | 0.00 | 0.00 | 90 | 1012.0 |
| 20260509073155 | 0 | 274 | 0.0 | 0.0 | 0.00 | 0.00 | 0.00 | 90 | 1012.0 |
| 20260509072652 | 0 | 274 | 0.0 | 0.0 | 0.00 | 0.00 | 0.00 | 90 | 1012.0 |
| 20260509072149 | 0 | 274 | 0.0 | 0.0 | 0.00 | 0.00 | 0.00 | 90 | 1012.2 |
| 20260509071646 | 0 | 274 | 0.0 | 0.0 | 0.00 | 0.00 | 0.00 | 91 | 1012.0 |
| 20260509071143 | 0 | 274 | 0.0 | 0.0 | 0.00 | 0.00 | 0.00 | 90 | 1012.0 |
| 20260509070640 | 0 | 274 | 0.0 | 0.0 | 0.00 | 0.00 | 0.00 | 90 | 1011.6 |
| 20260509070136 | 0 | 274 | 0.0 | 0.0 | 0.00 | 0.00 | 0.00 | 90 | 1012.0 |
| 20260509065632 | 0 | 274 | 0.0 | 0.0 | 0.00 | 0.00 | 0.00 | 90 | 1011.8 |
| 20260509065128 | 0 | 274 | 0.0 | 0.0 | 0.00 | 0.00 | 0.00 | 90 | 1011.5 |
| 20260509064626 | 0 | 274 | 0.0 | 0.0 | 0.00 | 0.00 | 0.00 | 89 | 1011.8 |
| 20260509064124 | 0 | 274 | 0.0 | 0.0 | 0.00 | 0.00 | 0.00 | 89 | 1011.8 |
| 20260509063620 | 0 | 274 | 0.0 | 0.0 | 0.00 | 0.00 | 0.00 | 89 | 1011.8 |
| 20260509063117 | 0 | 274 | 0.0 | 0.0 | 0.00 | 0.00 | 0.00 | 88 | 1011.6 |
| 20260509062614 | 0 | 274 | 0.0 | 0.0 | 0.00 | 0.00 | 0.00 | 88 | 1011.5 |
| 20260509062111 | 0 | 274 | 0.0 | 0.0 | 0.00 | 0.00 | 0.00 | 88 | 1011.7 |
| 20260509061608 | 0 | 274 | 0.0 | 0.0 | 0.00 | 0.00 | 0.00 | 87 | 1011.7 |
| 20260509061105 | 1 | 274 | 0.0 | 0.0 | 0.00 | 0.00 | 0.00 | 87 | 1011.6 |
| 20260509060603 | 1 | 274 | 0.0 | 0.0 | 0.00 | 0.00 | 0.00 | 87 | 1011.7 |
| 20260509060058 | 1 | 274 | 0.0 | 0.0 | 0.00 | 0.00 | 0.00 | 86 | 1011.4 |
| 20260509055554 | 1 | 274 | 0.0 | 0.0 | 0.00 | 0.00 | 0.00 | 86 | 1011.4 |
| 20260509055050 | 1 | 274 | 0.0 | 0.0 | 0.00 | 0.00 | 0.00 | 85 | 1011.4 |
| 20260509054548 | 1 | 274 | 0.0 | 0.0 | 0.00 | 0.00 | 0.00 | 85 | 1011.4 |
| 20260509054045 | 1 | 274 | 0.0 | 0.0 | 0.00 | 0.00 | 0.00 | 85 | 1011.3 |
| 20260509053543 | 1 | 274 | 0.0 | 0.0 | 0.00 | 0.00 | 0.00 | 85 | 1011.5 |
| 20260509053040 | 1 | 274 | 0.0 | 0.0 | 0.00 | 0.00 | 0.00 | 85 | 1011.5 |
| 20260509052537 | 1 | 274 | 0.0 | 0.0 | 0.00 | 0.00 | 0.00 | 85 | 1011.4 |
| 20260509052030 | 1 | 274 | 0.0 | 0.0 | 0.00 | 0.00 | 0.00 | 85 | 1011.5 |
| 20260509051527 | 1 | 274 | 0.0 | 0.0 | 0.00 | 0.00 | 0.00 | 84 | 1011.4 |
| 20260509051024 | 1 | 274 | 0.0 | 0.0 | 0.00 | 0.00 | 0.00 | 84 | 1011.5 |
| 20260509050520 | 2 | 274 | 0.0 | 0.0 | 0.00 | 0.00 | 0.00 | 83 | 1011.4 |
| 20260509050011 | 2 | 274 | 0.0 | 0.0 | 0.00 | 0.00 | 0.00 | 83 | 1011.4 |
| 20260509045509 | 2 | 274 | 0.0 | 0.0 | 0.00 | 0.00 | 0.00 | 82 | 1011.2 |
| 20260509045006 | 2 | 274 | 0.0 | 0.0 | 0.00 | 0.00 | 0.00 | 82 | 1011.6 |
| 20260509044504 | 2 | 274 | 0.0 | 0.0 | 0.00 | 0.00 | 0.00 | 82 | 1011.7 |
| 20260509044000 | 2 | 274 | 0.0 | 0.0 | 0.00 | 0.00 | 0.00 | 82 | 1011.6 |
| 20260509043456 | 2 | 274 | 0.0 | 0.0 | 0.00 | 0.00 | 0.00 | 81 | 1011.5 |
| 20260509042952 | 2 | 274 | 0.0 | 0.0 | 0.00 | 0.00 | 0.00 | 81 | 1011.5 |
| 20260509042449 | 2 | 274 | 0.0 | 0.0 | 0.00 | 0.00 | 0.00 | 81 | 1011.3 |
| 20260509041945 | 2 | 274 | 0.0 | 0.0 | 0.00 | 0.00 | 0.00 | 81 | 1011.7 |
| 20260509041442 | 2 | 274 | 0.0 | 0.0 | 0.00 | 0.00 | 0.00 | 80 | 1011.4 |
| 20260509040940 | 2 | 274 | 0.0 | 0.0 | 0.00 | 0.00 | 0.00 | 80 | 1011.2 |
| 20260509040438 | 2 | 274 | 0.0 | 0.0 | 0.00 | 0.00 | 0.00 | 80 | 1011.3 |
| 20260509035934 | 2 | 274 | 0.0 | 0.0 | 0.00 | 0.00 | 0.00 | 80 | 1010.9 |
| 20260509035431 | 2 | 274 | 0.0 | 0.0 | 0.00 | 0.00 | 0.00 | 80 | 1011.2 |
| 20260509034928 | 2 | 274 | 0.0 | 0.0 | 0.00 | 0.00 | 0.00 | 80 | 1011.2 |
| 20260509034426 | 2 | 274 | 0.0 | 0.0 | 0.00 | 0.00 | 0.00 | 80 | 1011.1 |
| 20260509033922 | 2 | 274 | 0.0 | 0.0 | 0.00 | 0.00 | 0.00 | 80 | 1010.9 |
| 20260509033419 | 2 | 274 | 0.0 | 0.0 | 0.00 | 0.00 | 0.00 | 80 | 1011.1 |
| 20260509032916 | 2 | 274 | 0.0 | 0.0 | 0.00 | 0.00 | 0.00 | 79 | 1010.6 |
| 20260509032414 | 2 | 274 | 0.0 | 1.6 | 0.00 | 0.00 | 0.00 | 79 | 1010.7 |
| 20260509031911 | 2 | 274 | 0.0 | 0.0 | 0.00 | 0.00 | 0.00 | 78 | 1010.7 |
| 20260509031409 | 2 | 274 | 0.0 | 0.0 | 0.00 | 0.00 | 0.00 | 78 | 1010.6 |
| 20260509030906 | 2 | 274 | 0.0 | 0.0 | 0.00 | 0.00 | 0.00 | 78 | 1010.6 |
| 20260509030404 | 2 | 274 | 0.0 | 0.0 | 0.00 | 0.00 | 0.00 | 78 | 1010.4 |
| 20260509025901 | 2 | 274 | 0.0 | 0.0 | 0.00 | 0.00 | 0.00 | 77 | 1010.4 |
| 20260509025356 | 2 | 274 | 0.0 | 0.0 | 0.00 | 0.00 | 0.00 | 77 | 1010.3 |
| 20260509024851 | 2 | 274 | 0.0 | 0.0 | 0.00 | 0.00 | 0.00 | 78 | 1010.6 |
| 20260509024347 | 2 | 274 | 0.0 | 0.0 | 0.00 | 0.00 | 0.00 | 78 | 1010.5 |
| 20260509023845 | 2 | 274 | 0.0 | 0.0 | 0.00 | 0.00 | 0.00 | 77 | 1010.5 |
| 20260509023342 | 2 | 274 | 0.0 | 0.0 | 0.00 | 0.00 | 0.00 | 77 | 1010.2 |
| 20260509022838 | 2 | 274 | 0.0 | 0.0 | 0.00 | 0.00 | 0.00 | 77 | 1010.2 |
| 20260509022336 | 2 | 274 | 0.0 | 0.0 | 0.00 | 0.00 | 0.00 | 76 | 1010.4 |
| 20260509021832 | 2 | 274 | 0.0 | 0.0 | 0.00 | 0.00 | 0.00 | 76 | 1010.1 |
| 20260509021324 | 2 | 274 | 0.0 | 0.0 | 0.00 | 0.00 | 0.00 | 76 | 1010.0 |
| 20260509020822 | 2 | 274 | 0.0 | 0.0 | 0.00 | 0.00 | 0.00 | 75 | 1009.9 |
| 20260509020320 | 2 | 274 | 0.0 | 0.0 | 0.00 | 0.00 | 0.00 | 76 | 1009.9 |
| 20260509015817 | 2 | 274 | 0.0 | 0.0 | 0.00 | 0.00 | 0.00 | 75 | 1009.7 |
| 20260509015315 | 2 | 274 | 0.0 | 0.0 | 0.00 | 0.00 | 0.00 | 75 | 1009.6 |
| 20260509014811 | 2 | 274 | 0.0 | 0.0 | 0.00 | 0.00 | 0.00 | 73 | 1009.6 |
| 20260509014308 | 2 | 274 | 0.0 | 0.0 | 0.00 | 0.00 | 0.00 | 73 | 1009.5 |
| 20260509013804 | 2 | 274 | 0.0 | 0.0 | 0.00 | 0.00 | 0.00 | 73 | 1009.4 |
| 20260509013300 | 2 | 274 | 0.0 | 0.0 | 0.00 | 0.00 | 0.00 | 73 | 1009.6 |
| 20260509012756 | 2 | 274 | 0.0 | 0.0 | 0.00 | 0.00 | 0.00 | 71 | 1009.5 |
| 20260509012254 | 3 | 274 | 0.0 | 0.0 | 0.00 | 0.00 | 0.00 | 71 | 1009.2 |
| 20260509011751 | 3 | 274 | 0.0 | 0.0 | 0.00 | 0.00 | 0.00 | 70 | 1009.3 |
| 20260509011249 | 3 | 274 | 0.0 | 0.0 | 0.00 | 0.00 | 0.00 | 68 | 1009.3 |